Location: Easthampton
(42.2676°N, 72.6690°W)
Time: 06:25:50
(UTC+00:00)

CAS-6 - Pass Details

Date: 28 March 2023
Orbit: 610 x 632 km, 97.9° (Epoch: 06 June)

Event Time Altitude Azimuth Distance (km) Brightness Sun altitude
Exits shadow 02:36:30 11° 5° (N) 1,926 ? -35.0°
Drops below altitude 10° 02:36:41 10° 4° (N) 1,995 ? -35.0°
Sets 02:39:00 0° 356° (N) 2,910 ? -35.3°
